CW9648 Weather Reports


Display with metric or nautical units.
time (UTC)temp
F
wind
direction
speed
MPH
gust
MPH
rain 1hr
in
rain 24hr
in
rain mn
in
humidity
%
barometer
mb
20260506132024 76 165 1.0 5.0 0.00 0.00 0.00 93 1011.3
20260506131524 75 167 1.0 2.0 0.00 0.00 0.00 93 1011.4
20260506131004 75 160 0.0 2.0 0.00 0.00 0.00 93 1011.4
20260506130504 75 147 0.0 2.0 0.00 0.00 0.00 93 1011.4
20260506130005 75 169 1.0 3.0 0.00 0.00 0.00 93 1011.3
20260506125504 75 169 1.0 3.0 0.00 0.00 0.00 93 1011.2
20260506125025 75 164 1.0 4.0 0.00 0.00 0.00 93 1011.1
20260506124525 75 168 1.0 4.0 0.00 0.00 0.00 93 1011.1
20260506124004 75 167 2.0 4.0 0.00 0.00 0.00 93 1011.1
20260506123525 74 166 1.0 4.0 0.00 0.00 0.00 93 1011.0
20260506123004 74 174 1.0 4.0 0.00 0.00 0.00 93 1011.1
20260506122504 74 172 1.0 3.0 0.00 0.00 0.00 93 1011.1
20260506122004 74 165 1.0 4.0 0.00 0.00 0.00 93 1010.9
20260506121504 74 162 1.0 4.0 0.00 0.00 0.00 93 1010.9
20260506121004 74 163 1.0 4.0 0.00 0.00 0.00 93 1010.9
20260506120525 74 165 1.0 4.0 0.00 0.00 0.00 93 1010.8
20260506120011 74 172 0.0 3.0 0.00 0.00 0.00 93 1010.8
20260506115504 74 165 0.0 3.0 0.00 0.00 0.00 93 1010.7
20260506115004 74 155 0.0 3.0 0.00 0.00 0.00 93 1010.8
20260506114504 74 0 0.0 0.0 0.00 0.00 0.00 93 1010.7
20260506114004 74 0 0.0 0.0 0.00 0.00 0.00 93 1010.6
20260506113525 74 0 0.0 0.0 0.00 0.00 0.00 93 1010.6
20260506113004 74 0 0.0 0.0 0.00 0.00 0.00 93 1010.5
20260506112504 74 0 0.0 0.0 0.00 0.00 0.00 93 1010.3
20260506112004 74 162 0.0 2.0 0.00 0.00 0.00 93 1010.4
20260506111525 74 162 1.0 4.0 0.00 0.00 0.00 93 1010.3
20260506111004 74 164 1.0 4.0 0.00 0.00 0.00 93 1010.3
20260506110504 74 212 0.0 1.0 0.00 0.00 0.00 93 1010.3
20260506110004 74 212 0.0 2.0 0.00 0.00 0.00 93 1010.3
20260506105525 74 200 1.0 2.0 0.00 0.00 0.00 93 1010.1
20260506105004 74 178 1.0 5.0 0.00 0.00 0.00 93 1010.1
20260506104504 74 182 1.0 5.0 0.00 0.00 0.00 93 1010.1
20260506104025 74 192 1.0 5.0 0.00 0.00 0.00 93 1010.1
20260506103504 74 191 1.0 3.0 0.00 0.00 0.00 93 1010.0
20260506103004 74 177 1.0 3.0 0.00 0.00 0.00 93 1010.0
20260506102504 74 166 1.0 3.0 0.00 0.00 0.00 93 1010.0
20260506102004 74 204 1.0 2.0 0.00 0.00 0.00 93 1010.1
20260506101504 74 216 1.0 3.0 0.00 0.00 0.00 93 1010.0
20260506101004 74 209 1.0 3.0 0.00 0.00 0.00 93 1010.1
20260506100504 74 201 1.0 4.0 0.00 0.00 0.00 93 1010.0
20260506100004 74 202 1.0 4.0 0.00 0.00 0.00 93 1010.0
20260506095504 74 203 1.0 3.0 0.00 0.00 0.00 93 1009.9
20260506095004 74 188 0.0 2.0 0.00 0.00 0.00 93 1009.9
20260506094504 74 184 0.0 2.0 0.00 0.00 0.00 93 1009.9
20260506094004 74 169 1.0 2.0 0.00 0.00 0.00 93 1009.9
20260506093504 74 180 1.0 2.0 0.00 0.00 0.00 93 1009.8
20260506093004 75 198 1.0 2.0 0.00 0.00 0.00 93 1009.9
20260506092504 75 184 1.0 4.0 0.00 0.00 0.00 93 1009.9
20260506092004 75 186 1.0 4.0 0.00 0.00 0.00 93 1009.9
20260506091504 75 192 1.0 2.0 0.00 0.00 0.00 93 1010.0
20260506091004 75 189 1.0 3.0 0.00 0.00 0.00 93 1010.0
20260506090525 75 201 1.0 3.0 0.00 0.00 0.00 93 1009.9
20260506090004 75 190 1.0 5.0 0.00 0.00 0.00 93 1009.8
20260506085504 75 183 1.0 5.0 0.00 0.00 0.00 93 1009.9
20260506085004 75 199 1.0 3.0 0.00 0.00 0.00 93 1010.0
20260506084504 75 198 1.0 3.0 0.00 0.00 0.00 93 1009.9
20260506084004 75 202 1.0 3.0 0.00 0.00 0.00 93 1010.0
20260506083504 75 197 1.0 3.0 0.00 0.00 0.00 93 1009.9
20260506083004 75 188 1.0 2.0 0.00 0.00 0.00 93 1009.9
20260506082504 75 203 1.0 2.0 0.00 0.00 0.00 93 1009.9
20260506082004 75 208 1.0 2.0 0.00 0.00 0.00 93 1009.9
20260506081504 75 202 0.0 2.0 0.00 0.00 0.00 93 1009.9
20260506081025 75 197 0.0 2.0 0.00 0.00 0.00 93 1009.9
20260506080504 75 189 1.0 3.0 0.00 0.00 0.00 93 1009.9
20260506073504 75 187 1.0 2.0 0.00 0.00 0.00 92 1010.1
20260506073004 75 186 0.0 2.0 0.00 0.00 0.00 92 1010.2
20260506072504 75 171 1.0 4.0 0.00 0.00 0.00 92 1010.1
20260506072004 75 165 1.0 5.0 0.00 0.00 0.00 92 1010.2
20260506071525 75 161 1.0 5.0 0.00 0.00 0.00 92 1010.3
20260506071004 75 176 1.0 4.0 0.00 0.00 0.00 92 1010.3
20260506070504 75 189 1.0 2.0 0.00 0.00 0.00 92 1010.5
20260506062504 76 196 1.0 3.0 0.00 0.00 0.00 91 1010.2
20260506062004 76 196 1.0 5.0 0.00 0.00 0.00 91 1010.4
20260506061504 76 205 1.0 5.0 0.00 0.00 0.00 92 1010.3
20260506061004 76 204 1.0 4.0 0.00 0.00 0.00 92 1010.3
20260506060504 76 198 2.0 5.0 0.00 0.00 0.00 92 1010.3
20260506051004 76 190 2.0 5.0 0.00 0.00 0.00 91 1010.1
20260506050504 76 182 2.0 7.0 0.00 0.00 0.00 91 1010.1
20260506045004 76 193 1.0 6.0 0.00 0.00 0.00 91 1010.3
20260506044504 76 193 1.0 6.0 0.00 0.00 0.00 91 1010.3
20260506044004 76 184 1.0 6.0 0.00 0.00 0.00 91 1010.3
20260506043504 76 176 1.0 6.0 0.00 0.00 0.00 91 1010.1
20260506043004 76 176 2.0 5.0 0.00 0.00 0.00 91 1010.2
20260506042525 76 183 1.0 5.0 0.00 0.00 0.00 91 1010.2
20260506042004 76 197 1.0 6.0 0.00 0.00 0.00 91 1010.1
20260506041525 76 181 2.0 6.0 0.00 0.00 0.00 91 1010.0
20260506041004 76 178 2.0 5.0 0.00 0.00 0.00 91 1010.1
20260506040504 76 184 1.0 4.0 0.00 0.00 0.00 91 1010.0
20260506040004 76 186 1.0 4.0 0.00 0.00 0.00 91 1010.0
20260506035504 76 177 2.0 6.0 0.00 0.00 0.00 91 1010.0
20260506035004 76 174 2.0 6.0 0.00 0.00 0.00 91 1010.0
20260506034504 76 201 1.0 3.0 0.00 0.00 0.00 91 1010.0
20260506034004 76 202 1.0 3.0 0.00 0.00 0.00 91 1009.9
20260506033504 76 204 2.0 4.0 0.00 0.00 0.00 91 1009.8
20260506033004 76 192 2.0 6.0 0.00 0.00 0.00 91 1009.7
20260506032504 76 189 2.0 6.0 0.00 0.00 0.00 91 1009.6
20260506032004 76 206 2.0 8.0 0.00 0.00 0.00 91 1009.6
20260506031504 76 210 1.0 8.0 0.00 0.00 0.00 91 1009.5
20260506031004 76 182 1.0 5.0 0.00 0.00 0.00 90 1009.4
20260506030504 76 179 2.0 5.0 0.00 0.00 0.00 90 1009.4
20260506030005 76 195 1.0 5.0 0.00 0.00 0.00 90 1009.2
20260506025504 76 187 1.0 4.0 0.00 0.00 0.00 90 1009.3
20260506025004 76 167 2.0 7.0 0.00 0.00 0.00 90 1009.2
20260506024504 76 169 2.0 7.0 0.00 0.00 0.00 90 1009.1
20260506024004 77 174 2.0 5.0 0.00 0.00 0.00 89 1009.0
20260506023504 77 187 1.0 4.0 0.00 0.00 0.00 89 1009.1
20260506023004 77 195 2.0 4.0 0.00 0.00 0.00 89 1009.1
20260506022504 77 185 2.0 4.0 0.00 0.00 0.00 89 1009.0
20260506022004 77 180 2.0 8.0 0.00 0.00 0.00 89 1008.9
20260506021504 77 185 2.0 8.0 0.00 0.00 0.00 89 1008.9
20260506021004 77 188 1.0 5.0 0.00 0.00 0.00 89 1008.7
20260506020504 77 179 2.0 5.0 0.00 0.00 0.00 89 1008.7
20260506020004 77 180 2.0 6.0 0.00 0.00 0.00 89 1008.6
20260506015504 78 184 2.0 6.0 0.00 0.00 0.00 89 1008.4
20260506015004 78 191 2.0 6.0 0.00 0.00 0.00 89 1008.4
20260506014504 78 200 1.0 4.0 0.00 0.00 0.00 89 1008.4
20260506014025 78 183 1.0 6.0 0.00 0.00 0.00 89 1008.2
20260506013504 78 177 2.0 6.0 0.00 0.00 0.00 89 1008.2
20260506013004 78 186 2.0 6.0 0.00 0.00 0.00 89 1008.1
20260506012525 78 182 2.0 6.0 0.00 0.00 0.00 89 1008.1
20260506012004 78 172 2.0 6.0 0.00 0.00 0.00 89 1007.9
20260506011504 78 172 1.0 4.0 0.00 0.00 0.00 88 1007.8
20260506011004 78 206 1.0 5.0 0.00 0.00 0.00 88 1007.7
20260506010504 78 206 2.0 5.0 0.00 0.00 0.00 87 1007.6
20260506010004 78 191 2.0 5.0 0.00 0.00 0.00 87 1007.6
20260506005504 78 186 2.0 7.0 0.00 0.00 0.00 87 1007.5
20260506005004 78 192 2.0 7.0 0.00 0.00 0.00 87 1007.5
20260506004504 78 194 2.0 6.0 0.00 0.00 0.00 87 1007.4
20260506004004 79 191 2.0 6.0 0.00 0.00 0.00 87 1007.3
20260506003504 79 182 2.0 6.0 0.00 0.00 0.00 86 1007.2
20260506003004 79 176 2.0 6.0 0.00 0.00 0.00 86 1007.4
20260506002504 79 193 2.0 4.0 0.00 0.00 0.00 86 1007.3
20260506002004 79 197 2.0 4.0 0.00 0.00 0.00 86 1007.4
20260506001507 79 180 2.0 5.0 0.00 0.00 0.00 85 1007.5
20260506001025 79 191 2.0 5.0 0.00 0.00 0.00 85 1007.4
20260506000524 80 213 1.0 5.0 0.00 0.00 0.00 85 1007.5
20260506000004 80 323 2.0 4.0 0.00 0.00 0.00 84 1007.3
20260505235504 80 2 2.0 6.0 0.00 0.00 0.00 84 1007.4
20260505235003 80 359 2.0 6.0 0.00 0.00 0.00 83 1007.4
20260505234503 80 181 3.0 8.0 0.00 0.00 0.00 83 1007.4
20260505234003 81 173 3.0 9.0 0.00 0.00 0.00 82 1007.4
20260505233525 81 173 3.0 9.0 0.00 0.00 0.00 82 1007.4
20260505233004 81 172 3.0 9.0 0.00 0.00 0.00 82 1007.5
20260505232504 82 174 4.0 9.0 0.00 0.00 0.00 81 1007.6
20260505232004 82 185 3.0 9.0 0.00 0.00 0.00 80 1007.6
20260505231525 82 193 2.0 6.0 0.00 0.00 0.00 80 1007.5
20260505231003 82 201 2.0 6.0 0.00 0.00 0.00 80 1007.6
20260505230504 82 217 2.0 5.0 0.00 0.00 0.00 80 1007.6
20260505230004 82 176 3.0 10.0 0.00 0.00 0.00 80 1007.6
20260505225504 82 167 3.0 10.0 0.00 0.00 0.00 80 1007.6
20260505225003 83 171 2.0 6.0 0.00 0.00 0.00 80 1007.7
20260505224503 83 170 2.0 6.0 0.00 0.00 0.00 80 1007.7
20260505224004 82 191 2.0 5.0 0.00 0.00 0.00 80 1007.7
20260505223525 82 180 2.0 8.0 0.00 0.00 0.00 79 1007.6
20260505223004 83 171 3.0 8.0 0.00 0.00 0.00 79 1007.7
20260505222525 83 177 2.0 6.0 0.00 0.00 0.00 80 1007.7
20260505222003 82 173 2.0 12.0 0.00 0.00 0.00 81 1007.8
20260505221503 82 168 3.0 12.0 0.00 0.00 0.00 80 1007.8
20260505221004 82 169 3.0 9.0 0.00 0.00 0.00 79 1007.7
20260505220503 83 179 3.0 8.0 0.00 0.00 0.00 78 1007.6
20260505220004 83 179 4.0 10.0 0.00 0.00 0.00 78 1007.5
20260505215504 83 175 4.0 10.0 0.00 0.00 0.00 77 1007.6
20260505215003 84 173 3.0 11.0 0.00 0.00 0.00 77 1007.6
20260505214503 84 190 3.0 11.0 0.00 0.00 0.00 77 1007.5
20260505214004 83 217 3.0 6.0 0.00 0.00 0.00 77 1007.5
20260505213524 83 191 4.0 11.0 0.00 0.00 0.00 77 1007.7
20260505213003 84 176 4.0 11.0 0.00 0.00 0.00 77 1007.5
20260505212503 84 174 4.0 11.0 0.00 0.00 0.00 77 1007.7
20260505212003 84 167 5.0 11.0 0.00 0.00 0.00 77 1007.8
20260505211503 84 179 4.0 10.0 0.00 0.00 0.00 77 1007.8
20260505211003 84 206 4.0 10.0 0.00 0.00 0.00 77 1007.8
20260505210524 83 216 4.0 10.0 0.00 0.00 0.00 76 1007.9
20260505210004 83 208 4.0 10.0 0.00 0.00 0.00 77 1007.9
20260505205503 84 187 3.0 10.0 0.00 0.00 0.00 76 1008.1
20260505205024 84 177 3.0 9.0 0.00 0.00 0.00 78 1008.1
20260505204503 83 182 4.0 10.0 0.00 0.00 0.00 78 1008.2
20260505204003 83 175 3.0 10.0 0.00 0.00 0.00 78 1008.2
20260505203503 83 167 4.0 12.0 0.00 0.00 0.00 78 1008.3
20260505203024 84 188 5.0 12.0 0.00 0.00 0.00 76 1008.4
20260505202503 84 211 4.0 11.0 0.00 0.00 0.00 74 1008.4
20260505202024 84 177 5.0 14.0 0.00 0.00 0.00 75 1008.4
20260505201504 84 166 6.0 14.0 0.00 0.00 0.00 76 1008.4
20260505201003 84 170 5.0 14.0 0.00 0.00 0.00 77 1008.5
20260505200504 83 185 4.0 14.0 0.00 0.00 0.00 78 1008.4
20260505200004 83 180 5.0 13.0 0.00 0.00 0.00 77 1008.6
20260505195504 83 171 5.0 13.0 0.00 0.00 0.00 78 1008.7
20260505195024 83 192 4.0 9.0 0.00 0.00 0.00 79 1008.8
20260505194504 83 223 3.0 9.0 0.00 0.00 0.00 79 1008.9
20260505194003 82 267 3.0 11.0 0.00 0.00 0.00 80 1008.9
20260505193503 82 207 3.0 11.0 0.00 0.00 0.00 81 1009.1
20260505193003 82 185 3.0 7.0 0.00 0.00 0.00 82 1009.1
20260505192504 81 184 2.0 7.0 0.00 0.00 0.00 83 1009.2
20260505192024 81 189 2.0 6.0 0.00 0.00 0.00 83 1009.2
20260505191503 81 288 2.0 6.0 0.00 0.00 0.00 84 1009.2
20260505191003 80 356 3.0 6.0 0.00 0.00 0.00 85 1009.2
20260505190503 79 360 3.0 6.0 0.00 0.00 0.00 85 1009.2
20260505190004 79 360 2.0 5.0 0.00 0.00 0.00 85 1009.3
20260505185503 79 360 2.0 5.0 0.00 0.00 0.00 85 1009.4
20260505185003 79 360 2.0 6.0 0.00 0.00 0.00 85 1009.4
20260505184524 79 360 3.0 8.0 0.00 0.00 0.00 84 1009.5
20260505184003 79 360 3.0 8.0 0.00 0.00 0.00 84 1009.4
20260505183503 80 360 3.0 8.0 0.00 0.00 0.00 83 1009.4
20260505183003 80 360 3.0 6.0 0.00 0.00 0.00 84 1009.4
20260505182503 80 360 2.0 5.0 0.00 0.00 0.00 85 1009.3
20260505182003 79 358 2.0 6.0 0.00 0.00 0.00 85 1009.4
20260505181503 79 355 2.0 8.0 0.00 0.00 0.00 84 1009.3
20260505181003 79 357 2.0 8.0 0.00 0.00 0.00 85 1009.4
20260505180503 78 359 2.0 7.0 0.00 0.00 0.00 86 1009.6
20260505180003 78 359 2.0 7.0 0.00 0.00 0.00 86 1009.5
20260505175503 78 360 2.0 6.0 0.00 0.00 0.00 86 1009.7
20260505175003 78 360 2.0 6.0 0.00 0.00 0.00 85 1009.7
20260505174503 78 359 2.0 5.0 0.00 0.00 0.00 85 1009.7
20260505174024 78 358 2.0 8.0 0.00 0.00 0.00 84 1009.7
20260505173503 78 357 3.0 8.0 0.00 0.00 0.00 84 1009.7
20260505173004 78 358 2.0 6.0 0.00 0.00 0.00 84 1009.6
20260505172524 78 344 2.0 6.0 0.00 0.00 0.00 85 1009.8
20260505172003 78 195 2.0 6.0 0.00 0.00 0.00 86 1010.1
20260505171503 78 189 2.0 6.0 0.00 0.00 0.00 87 1009.9
20260505171003 77 185 2.0 6.0 0.00 0.00 0.00 86 1010.1
20260505170503 77 180 2.0 6.0 0.00 0.00 0.00 86 1010.2
20260505170024 77 186 2.0 5.0 0.00 0.00 0.00 86 1010.2
20260505165504 77 190 2.0 9.0 0.00 0.00 0.00 86 1010.2
20260505165003 77 177 3.0 9.0 0.00 0.00 0.00 86 1010.1
20260505164504 77 178 3.0 9.0 0.00 0.00 0.00 86 1010.0
20260505164003 77 189 3.0 9.0 0.00 0.00 0.00 87 1009.8
20260505163524 77 193 3.0 7.0 0.00 0.00 0.00 87 1010.0
20260505163024 76 196 2.0 7.0 0.00 0.00 0.00 87 1010.1
20260505162503 76 194 2.0 7.0 0.00 0.00 0.00 87 1010.2
20260505162003 76 189 2.0 7.0 0.00 0.00 0.00 87 1010.2
20260505161524 76 195 1.0 5.0 0.00 0.00 0.00 88 1010.3
20260505161003 76 208 1.0 5.0 0.00 0.00 0.00 88 1010.3
20260505160503 76 207 2.0 6.0 0.00 0.00 0.00 88 1010.3
20260505153003 75 211 2.0 7.0 0.00 0.00 0.00 88 1010.0
20260505152503 75 186 2.0 7.0 0.00 0.00 0.00 88 1009.9
20260505152024 75 179 3.0 8.0 0.00 0.00 0.00 88 1010.1
20260505151503 75 189 3.0 8.0 0.00 0.00 0.00 88 1010.1
20260505151024 75 183 3.0 11.0 0.00 0.00 0.00 88 1010.0
20260505150503 74 183 3.0 11.0 0.00 0.00 0.00 88 1009.9
20260505140504 71 224 1.0 4.0 0.00 0.00 0.00 92 1010.2